STARLINK-35098

Last updated on Thu Oct 02 2025 00:02:05 GMT+0000 (Coordinated Universal Time)

1 65476U 25195U 25274.50002315 -.01573509 00000+0 -36948-1 0 9998 2 65476 53.1588 280.6042 0001254 79.9777 102.7658 15.44643981 5009

Satellite not in orbit

STARLINK-35098